Location: Waverly
(39.3325°N, 76.6061°W)
Time: 22:52:45
(UTC+00:00)

Hubble Space Telescope - Visible Passes

Search period start: 14 December 2025 00:00
Search period end: 24 December 2025 00:00
Orbit: 480 x 483 km, 28.5° (Epoch: 14 December)

Date Brightness Start Highest point End Pass type
(mag) Time Alt. Az. Time Alt. Az. Time Alt. Az.
14 Dec 3.0 23:06:49 10° SW 23:09:08 15° S 23:11:27 10° SE visible
15 Dec 3.1 22:37:34 10° SW 22:39:52 15° S 22:42:10 10° SE visible
16 Dec 3.2 22:08:17 10° SW 22:10:36 15° S 22:12:54 10° SSE visible
